Weather in Mezhove

Ukraine / Donetsk Region     47°57′59″N   38°04′14″E
temp.,
°C
wind,
m/s
gust,
m/s
humid.,
%
clouds,
%
prec.,
mm/h
press.,
hPa
HPBL,
m
8 may, sat
sat800:00+13sse237061 0.0 1016112
03:00+12sse3769100 0.0 1015212
06:00+11sse497398 0.0 1014287
09:00+15sse51056100 0.0 1013672
12:00+19s794899 0.0 10111258
15:00+21ssw811455 0.0 10091588
18:00+19ssw61047100 0.0 10091183
21:00+16ssw3758100 0.0 1009418
9 may, sun
sun900:00+10nnw81281100 0.1 1010666
03:00+7nnw71288100 3.4 1012692
06:00+6nnw61183100 1.1 1014860
09:00+8nnw71071100 1.1 10161008
12:00+10nnw7105099 0.0 10171358
15:00+13nnw81037100 0.0 10182219
18:00+12nnw6937100 0.0 10202292
21:00+9nnw595394 0.0 1023997
10 may, mon
mon1000:00+8nw4106289 0.0 1023582
03:00+7nnw51166100 0.0 1024726
06:00+7nnw51267100 0.0 1023679
09:00+9nnw71254100 0.0 10221251
12:00+13nnw81238100 0.0 10212419
15:00+12nnw71351100 0.2 10201956
18:00+9nnw81574100 0.8 10181409
21:00+9nnw91672100 1.3 10151194
11 may, tue
tue1100:00+8nnw91891100 1.9 1012917
03:00+10nne81493100 2.8 10111221
06:00+8nne61193100 0.1 1013844
09:00+9ne71270100 0.3 10131357
12:00+10ne81170100 0.3 10141335
15:00+6ne61082100 0.5 10151017
18:00+7e61094100 1.2 1012749
21:00+6se598962 1.4 1016685
12 may, wed
wed1200:00+7ese5995100 0.1 1017542
03:00+8se61194100 0.6 1016877
06:00+7ese61295100 0.9 1018902
09:00+8ese51195100 1.5 1018683
12:00+13se61072100 0.1 10181260
15:00+14se51264100 0.7 10161876
18:00+14se41078100 0.6 1016777
21:00+13ese31087100 1.0 1016379